Location: B�hl
(48.6968°N, 8.1352°E)
Time: 10:51:53
(UTC+00:00)

COSMOS 2428 - Pass Details

Date: 08 March 2021
Orbit: 846 x 857 km, 70.9° (Epoch: 11 April)

Event Time Altitude Azimuth Distance (km) Brightness Sun altitude
Rises 18:16:54 0° 188° (S) 3,393 5.9 -9.8°
Reaches altitude 10° 18:19:24 10° 183° (S) 2,462 5.1 -10.2°
Maximum altitude 18:24:48 49° 110° (ESE) 1,090 2.9 -11.1°
Drops below altitude 10° 18:30:16 10° 37° (NE) 2,484 4.8 -12.0°
Sets 18:32:47 0° 32° (NNE) 3,426 5.6 -12.4°
